TimeEDT,TemperatureF,Dew PointF,Humidity,Sea Level PressureIn,VisibilityMPH,Wind Direction,Wind SpeedMPH,Gust SpeedMPH,PrecipitationIn,Events,Conditions,WindDirDegrees,DateUTC
12:15 AM,51.8,51.8,100,29.91,7.0,NE,11.5,-,N/A,Rain,Rain,40,2014-05-15 04:15:00
12:35 AM,51.1,50.9,99,29.90,7.0,NE,11.5,19.6,N/A,Rain,Light Rain,50,2014-05-15 04:35:00
12:55 AM,50.2,50.2,100,29.86,4.0,NNE,13.8,17.3,N/A,Rain,Light Rain,30,2014-05-15 04:55:00
1:15 AM,49.6,49.5,99,29.87,10.0,ENE,10.4,-,N/A,Rain,Rain,70,2014-05-15 05:15:00
1:34 AM,49.3,49.1,99,29.86,10.0,East,5.8,26.5,N/A,Rain,Light Rain,80,2014-05-15 05:34:00
1:55 AM,49.1,48.9,99,29.85,10.0,East,9.2,19.6,N/A,,Light Drizzle,80,2014-05-15 05:55:00
2:15 AM,48.9,48.7,99,29.84,7.0,ENE,13.8,18.4,N/A,Rain,Light Rain,70,2014-05-15 06:15:00
2:34 AM,48.7,48.7,100,29.83,7.0,ENE,9.2,-,N/A,Rain,Light Rain,70,2014-05-15 06:34:00
2:55 AM,48.9,48.9,100,29.80,10.0,East,9.2,-,N/A,Rain,Rain,80,2014-05-15 06:55:00
3:15 AM,49.3,49.3,100,29.79,7.0,East,11.5,-,N/A,Rain,Light Rain,80,2014-05-15 07:15:00
3:34 AM,49.6,49.6,100,29.78,10.0,East,8.1,-,N/A,Rain,Light Rain,80,2014-05-15 07:34:00
3:55 AM,50.4,50.4,100,29.76,7.0,East,8.1,-,N/A,Rain,Light Rain,80,2014-05-15 07:55:00
4:15 AM,50.5,50.5,100,29.76,4.0,East,9.2,-,N/A,Rain,Rain,90,2014-05-15 08:15:00
4:35 AM,50.5,50.5,100,29.74,5.0,East,9.2,-,N/A,Rain,Rain,80,2014-05-15 08:35:00
4:55 AM,50.7,50.7,100,29.73,5.0,East,8.1,-,N/A,Rain,Light Rain,80,2014-05-15 08:55:00
5:14 AM,51.4,51.4,100,29.72,10.0,East,8.1,-,N/A,Rain,Light Rain,90,2014-05-15 09:14:00
5:35 AM,52.3,52.3,100,29.70,7.0,East,10.4,-,N/A,,Drizzle,80,2014-05-15 09:35:00
5:55 AM,53.2,53.2,100,29.70,5.0,East,3.5,-,N/A,Rain,Rain,80,2014-05-15 09:55:00
6:15 AM,53.2,53.2,100,29.70,5.0,East,3.5,-,N/A,Rain,Rain,90,2014-05-15 10:15:00
6:35 AM,53.4,53.4,100,29.70,5.0,Calm,Calm,-,N/A,Rain,Rain,0,2014-05-15 10:35:00
6:54 AM,53.2,53.2,100,29.72,2.0,West,11.5,-,N/A,Rain,Heavy Rain,280,2014-05-15 10:54:00
7:15 AM,51.3,51.3,100,29.71,5.0,NNW,6.9,-,N/A,Rain,Rain,340,2014-05-15 11:15:00
7:35 AM,50.4,50.4,100,29.70,7.0,North,5.8,-,N/A,Rain,Rain,10,2014-05-15 11:35:00
7:54 AM,49.6,49.6,100,29.70,10.0,North,5.8,-,N/A,Rain,Rain,360,2014-05-15 11:54:00
8:15 AM,49.6,49.6,100,29.71,5.0,NNE,4.6,-,N/A,Rain,Rain,20,2014-05-15 12:15:00
8:34 AM,49.3,49.3,100,29.71,5.0,North,6.9,-,N/A,Rain,Light Rain,360,2014-05-15 12:34:00
8:55 AM,48.6,48.6,100,29.72,10.0,North,8.1,-,N/A,,Overcast,360,2014-05-15 12:55:00
9:15 AM,48.6,48.6,100,29.72,10.0,North,6.9,-,N/A,,Overcast,10,2014-05-15 13:15:00
9:34 AM,48.9,48.7,99,29.72,5.0,North,6.9,-,N/A,,Overcast,350,2014-05-15 13:34:00
9:55 AM,48.6,48.6,100,29.72,2.5,NNW,5.8,-,N/A,,Overcast,340,2014-05-15 13:55:00
10:15 AM,49.1,49.1,100,29.72,1.2,NW,4.6,-,N/A,,Overcast,320,2014-05-15 14:15:00
10:34 AM,48.7,48.7,100,29.73,1.2,NW,3.5,-,N/A,,Overcast,320,2014-05-15 14:34:00
10:55 AM,49.1,49.1,100,29.73,1.5,WNW,4.6,-,N/A,,Overcast,300,2014-05-15 14:55:00
11:15 AM,49.6,49.6,100,29.74,1.5,WNW,3.5,-,N/A,,Overcast,290,2014-05-15 15:15:00
11:35 AM,49.8,49.6,99,29.75,2.5,West,6.9,-,N/A,,Overcast,270,2014-05-15 15:35:00
11:55 AM,49.6,49.5,99,29.76,1.8,West,8.1,-,N/A,,Overcast,270,2014-05-15 15:55:00
12:14 PM,49.6,49.5,99,29.77,4.0,West,9.2,-,N/A,,Overcast,280,2014-05-15 16:14:00
12:35 PM,49.8,49.5,99,29.78,4.0,West,10.4,-,N/A,,Overcast,270,2014-05-15 16:35:00
12:55 PM,50.7,50.4,99,29.79,2.5,West,11.5,-,N/A,,Overcast,270,2014-05-15 16:55:00
1:14 PM,50.5,49.6,97,29.79,3.0,West,10.4,-,N/A,,Overcast,270,2014-05-15 17:14:00
1:35 PM,50.4,49.6,97,29.80,3.0,West,9.2,-,N/A,,Overcast,280,2014-05-15 17:35:00
1:55 PM,50.4,49.6,97,29.81,5.0,West,9.2,-,N/A,,Overcast,280,2014-05-15 17:55:00
2:14 PM,49.5,48.2,95,29.82,10.0,West,11.5,-,N/A,,Overcast,280,2014-05-15 18:14:00
3:15 PM,49.1,46.2,90,29.85,10.0,West,16.1,19.6,N/A,,Overcast,280,2014-05-15 19:15:00
3:35 PM,50.4,46.4,86,29.85,10.0,West,9.2,-,N/A,,Overcast,270,2014-05-15 19:35:00
3:54 PM,48.2,44.4,87,29.86,10.0,West,15.0,24.2,N/A,,Overcast,280,2014-05-15 19:54:00
4:15 PM,47.5,45.5,93,29.86,10.0,WNW,15.0,18.4,N/A,,Overcast,290,2014-05-15 20:15:00
4:35 PM,47.7,44.2,88,29.87,10.0,West,13.8,17.3,N/A,,Overcast,260,2014-05-15 20:35:00
4:54 PM,48.0,42.8,82,29.88,10.0,West,15.0,18.4,N/A,,Overcast,270,2014-05-15 20:54:00
5:15 PM,47.1,42.1,83,29.89,10.0,West,12.7,21.9,N/A,,Overcast,280,2014-05-15 21:15:00
5:35 PM,47.5,41.7,80,29.90,10.0,West,16.1,-,N/A,,Overcast,280,2014-05-15 21:35:00
5:54 PM,45.7,41.2,84,29.91,10.0,West,11.5,19.6,N/A,,Overcast,260,2014-05-15 21:54:00
6:15 PM,45.0,40.8,85,29.92,10.0,West,8.1,-,N/A,,Overcast,260,2014-05-15 22:15:00
6:35 PM,44.4,40.3,85,29.93,10.0,West,11.5,-,N/A,,Overcast,270,2014-05-15 22:35:00
6:55 PM,44.4,40.1,85,29.94,10.0,WNW,17.3,23.0,N/A,,Overcast,290,2014-05-15 22:55:00
7:15 PM,43.9,39.6,85,29.95,10.0,WNW,12.7,19.6,N/A,,Overcast,290,2014-05-15 23:15:00
7:34 PM,43.5,39.7,87,29.96,10.0,WNW,15.0,24.2,N/A,,Overcast,290,2014-05-15 23:34:00
7:55 PM,43.5,39.9,87,29.97,10.0,WNW,17.3,-,N/A,,Overcast,300,2014-05-15 23:55:00
8:15 PM,43.3,39.6,87,29.98,10.0,WNW,13.8,21.9,N/A,,Overcast,300,2014-05-16 00:15:00
8:34 PM,43.2,38.5,84,29.99,10.0,NW,11.5,17.3,N/A,,Mostly Cloudy,310,2014-05-16 00:34:00
8:55 PM,42.3,38.3,86,29.99,10.0,WNW,8.1,-,N/A,,Scattered Clouds,300,2014-05-16 00:55:00
9:14 PM,42.3,38.7,87,30.00,10.0,WNW,4.6,-,N/A,,Scattered Clouds,300,2014-05-16 01:14:00
9:35 PM,42.8,39.6,88,30.00,10.0,West,4.6,-,N/A,,Overcast,280,2014-05-16 01:35:00
9:55 PM,42.6,39.7,90,30.01,10.0,West,3.5,-,N/A,,Overcast,280,2014-05-16 01:55:00
10:14 PM,43.0,39.4,87,30.01,10.0,West,5.8,-,N/A,,Overcast,260,2014-05-16 02:14:00
10:35 PM,42.3,38.8,88,30.01,10.0,West,8.1,-,N/A,,Overcast,280,2014-05-16 02:35:00
10:55 PM,41.2,38.5,90,30.01,10.0,West,8.1,-,N/A,,Scattered Clouds,280,2014-05-16 02:55:00
11:14 PM,40.6,38.5,92,30.01,10.0,WNW,9.2,-,N/A,,Clear,290,2014-05-16 03:14:00
11:35 PM,40.3,38.1,92,30.01,10.0,WNW,8.1,-,N/A,,Clear,290,2014-05-16 03:35:00
11:55 PM,39.7,38.1,94,30.00,10.0,WNW,9.2,-,N/A,,Clear,300,2014-05-16 03:55:00